Location: Chatou
(48.8898°N, 2.1586°E)
Time: 01:12:03
(UTC+00:00)

USA 290 - Pass Details

Date: 03 February 2023
Orbit: 401 x 409 km, 73.6° (Epoch: 13 March)

Event Time Altitude Azimuth Distance (km) Brightness Sun altitude
Rises 17:27:32 0° 211° (SSW) 2,339 6.9 -6.3°
Reaches altitude 10° 17:29:35 10° 216° (SW) 1,485 5.9 -6.6°
Maximum altitude 17:32:48 57° 296° (WNW) 497 2.9 -7.2°
Drops below altitude 10° 17:36:04 10° 17° (NNE) 1,506 4.7 -7.7°
Enters shadow 17:38:16 - 21° (NNE) 2,419 5.7 -8.0°
